Location: Unspecified
(0.0000°N, 0.0000°E)
Time: 01:20:25
(UTC+00:00)

Cosmos 80 Rocket - Pass Details

Date: 28 September 2021
Orbit: 1360 x 1510 km, 56.1° (Epoch: 26 October)

Event Time Altitude Azimuth Distance (km) Brightness Sun altitude
Rises 21:37:51 0° 301° (WNW) 4,560 8.4 -56.8°
Reaches altitude 10° 21:41:39 10° 287° (WNW) 3,558 7.7 -57.7°
Enters shadow 21:43:24 15° 278° (W) 3,177 7.4 -58.2°
